Corpus Christi, TX

7:05 AM CDT on July 22, 2017 (GMT -0500)
Corpus Christi International

Weather History for KCRP - February, 2014

Change the Weather History Date:

Sunday, February 2, 2014

  Actual Average Record
Temperature  
Mean Temperature 59 °F 58 °F  
Max Temperature 73 °F 68 °F 93 °F (2006)
Min Temperature 45 °F 48 °F 20 °F (1951)
Degree Days  
Heating Degree Days 6 8  
Month to date heating degree days 6 16  
Since 1 July heating degree days 772 643  
Cooling Degree Days 0 1  
Month to date cooling degree days 7 2  
Year to date cooling degree days 9 32  
Growing Degree Days 8 (Base 50)    
Moisture  
Dew Point 54 °F    
Average Humidity 78    
Maximum Humidity 90    
Minimum Humidity 65    
Precipitation  
Precipitation 0.01 in 0.06 in 1.01 in (1992)
Month to date precipitation 0.01 0.12  
Year to date precipitation 0.68 1.66  
Snow  
Snow 0.00 in - - ()
Month to date snowfall 0.0  
Since 1 July snowfall T  
Snow Depth 0.00 in    
Sea Level Pressure  
Sea Level Pressure 29.92 in    
Wind  
Wind Speed 14 mph (NE)    
Max Wind Speed 29 mph    
Max Gust Speed 36 mph    
Visibility 6 miles    
Events Rain    
T = Trace of Precipitation, MM = Missing Value Source: NWS Daily Summary

Daily Weather History Graph

Daily Weather History Graph

Search for Another Location

Airport or City:

Trip Planner

Search our weather history database for the weather conditions in past years. The results will help you decide how hot, cold, wet, or windy it might be!

Date:

Astronomy

Feb. 02, 2014 Rise Set
Actual Time 7:16 AM CST 6:11 PM CST
Civil Twilight 6:51 AM CST 6:36 PM CST
Nautical Twilight 6:23 AM CST 7:04 PM CST
Astronomical Twilight 5:56 AM CST 7:31 PM CST
Moon 9:04 AM CST (2/2) 9:33 PM CST (2/2)
Length of Visible Light 11h 44m
Length of Day
10h 55m
Waxing Crescent, 11% of the Moon is Illuminated
Feb 2
Waxing Crescent
Feb 6
First Quarter
Feb 14
Full
Feb 22
Last Quarter
Mar 1
New

Hourly Weather History & Observations

Time (CST) Temp. Windchill Dew Point Humidity Pressure Visibility Wind Dir Wind Speed Gust Speed Precip Events Conditions
12:07 AM 66.2 °F - 62.6 °F 88% 29.82 in 4.0 mi SSE 9.2 mph - N/A   Overcast
12:23 AM 66.2 °F - 64.4 °F 94% 29.82 in 4.0 mi SSE 11.5 mph - N/A   Mostly Cloudy
12:51 AM 68.0 °F - 64.9 °F 90% 29.81 in 4.0 mi SE 11.5 mph - N/A   Overcast
1:51 AM 69.1 °F - 66.0 °F 90% 29.79 in 4.0 mi SSE 13.8 mph - N/A   Overcast
2:51 AM 69.1 °F - 64.9 °F 87% 29.79 in 5.0 mi SE 10.4 mph - N/A   Overcast
3:51 AM 68.0 °F - 64.9 °F 90% 29.78 in 5.0 mi SE 9.2 mph - N/A   Overcast
4:17 AM 68.0 °F - 64.4 °F 88% 29.79 in 5.0 mi SE 6.9 mph - N/A   Overcast
4:51 AM 68.0 °F - 64.0 °F 87% 29.79 in 6.0 mi SE 10.4 mph - N/A   Overcast
5:23 AM 68.0 °F - 64.4 °F 88% 29.78 in 6.0 mi SE 10.4 mph - N/A   Overcast
5:51 AM 68.0 °F - 64.9 °F 90% 29.78 in 5.0 mi SE 10.4 mph - N/A   Overcast
6:27 AM 68.0 °F - 64.4 °F 88% 29.79 in 5.0 mi SE 8.1 mph - N/A   Overcast
6:42 AM 68.0 °F - 64.4 °F 88% 29.80 in 5.0 mi ESE 6.9 mph - N/A   Overcast
6:51 AM 68.0 °F - 64.9 °F 90% 29.80 in 5.0 mi ESE 6.9 mph - N/A   Overcast
7:06 AM 69.8 °F - 66.2 °F 88% 29.79 in 2.5 mi ESE 10.4 mph - N/A   Overcast
7:22 AM 66.2 °F - 64.4 °F 94% 29.80 in 1.5 mi East 8.1 mph - N/A   Overcast
7:35 AM 66.2 °F - 62.6 °F 88% 29.80 in 1.5 mi East 6.9 mph - N/A   Mostly Cloudy
7:51 AM 66.0 °F - 63.0 °F 90% 29.81 in 1.5 mi East 6.9 mph - N/A   Mostly Cloudy
8:19 AM 66.2 °F - 64.4 °F 94% 29.83 in 3.0 mi ENE 4.6 mph - N/A   Overcast
8:30 AM 66.2 °F - 64.4 °F 94% 29.83 in 4.0 mi ENE 4.6 mph - N/A   Overcast
8:51 AM 68.0 °F - 64.0 °F 87% 29.86 in 5.0 mi Calm Calm - N/A   Overcast
9:21 AM 69.8 °F - 64.4 °F 83% 29.87 in 6.0 mi East 4.6 mph - 0.00 in Rain Light Rain
9:34 AM 71.6 °F - 64.4 °F 78% 29.87 in 7.0 mi ENE 4.6 mph - 0.00 in   Overcast
9:51 AM 72.0 °F - 66.0 °F 81% 29.88 in 7.0 mi Variable 4.6 mph - 0.00 in   Overcast
10:35 AM 71.6 °F - 66.2 °F 83% 29.89 in 6.0 mi Calm Calm - 0.00 in Rain Light Rain
10:46 AM 71.6 °F - 66.2 °F 83% 29.89 in 4.0 mi East 5.8 mph - 0.00 in Rain Light Rain
10:51 AM 71.1 °F - 66.0 °F 84% 29.89 in 4.0 mi East 5.8 mph - 0.00 in Rain Light Rain
11:00 AM 71.6 °F - 66.2 °F 83% 29.89 in 3.0 mi ENE 6.9 mph - 0.00 in Rain Light Rain
11:51 AM 64.0 °F - 60.1 °F 87% 29.89 in 5.0 mi NNE 20.7 mph 24.2 mph 0.01 in Rain Light Rain
12:06 PM 57.2 °F - 53.6 °F 88% 29.91 in 4.0 mi North 24.2 mph - 0.00 in Rain Light Rain
12:13 PM 55.4 °F - 51.8 °F 88% 29.91 in 4.0 mi North 26.5 mph 32.2 mph 0.00 in Rain Light Rain
12:51 PM 50.0 °F - 46.0 °F 86% 29.94 in 7.0 mi North 25.3 mph 31.1 mph 0.00 in Rain Light Rain
1:09 PM 48.2 °F - 44.6 °F 87% 29.93 in 7.0 mi North 23.0 mph 29.9 mph 0.00 in Rain Light Rain
1:51 PM 48.9 °F - 44.1 °F 83% 29.93 in 7.0 mi North 20.7 mph - 0.00 in   Overcast
2:51 PM 46.9 °F - 41.0 °F 80% 29.96 in 9.0 mi North 24.2 mph 29.9 mph N/A   Overcast
3:30 PM 46.4 °F 38.1 °F 39.2 °F 76% 29.98 in 9.0 mi North 24.2 mph 32.2 mph N/A   Overcast
3:51 PM 46.0 °F 37.0 °F 39.0 °F 76% 30.00 in 8.0 mi NNW 27.6 mph 33.4 mph 0.00 in   Overcast
4:07 PM 44.6 °F 35.7 °F 39.2 °F 81% 30.01 in 6.0 mi North 24.2 mph 31.1 mph 0.00 in   Light Drizzle
4:51 PM 45.0 °F 36.4 °F 39.0 °F 80% 30.02 in 7.0 mi North 23.0 mph 29.9 mph 0.00 in   Light Drizzle
5:05 PM 46.4 °F 38.3 °F 37.4 °F 71% 30.03 in 8.0 mi North 23.0 mph - 0.00 in   Overcast
5:51 PM 46.9 °F - 37.9 °F 71% 30.04 in 9.0 mi North 23.0 mph 26.5 mph 0.00 in   Overcast
6:51 PM 46.9 °F - 37.0 °F 68% 30.06 in 10.0 mi North 15.0 mph - N/A   Overcast
7:51 PM 48.0 °F - 37.0 °F 66% 30.10 in 10.0 mi North 16.1 mph 25.3 mph N/A   Overcast
8:15 PM 48.2 °F - 37.4 °F 66% 30.12 in 10.0 mi North 19.6 mph - N/A   Overcast
8:49 PM 46.4 °F 40.4 °F 35.6 °F 66% 30.13 in 10.0 mi North 13.8 mph 24.2 mph N/A   Scattered Clouds
8:51 PM 46.9 °F - 36.0 °F 66% 30.14 in 10.0 mi North 15.0 mph 24.2 mph N/A   Scattered Clouds
9:51 PM 45.0 °F 38.2 °F 36.0 °F 71% 30.16 in 10.0 mi North 15.0 mph - N/A   Scattered Clouds
10:03 PM 44.6 °F 39.2 °F 35.6 °F 71% 30.16 in 10.0 mi North 10.4 mph - N/A   Mostly Cloudy
10:51 PM 46.0 °F 40.2 °F 36.0 °F 68% 30.18 in 10.0 mi North 12.7 mph - N/A   Overcast
11:51 PM 46.0 °F 39.9 °F 36.0 °F 68% 30.19 in 10.0 mi North 13.8 mph - N/A   Overcast